SPAINSAT 1 28945U 06007A 21065.62613831 -.00000232 00000-0 00000+0 0 9992 2 28945 0.0470 250.4981 0003929 68.7569 40.6887 1.00273011 54898 EUTELSAT HOT BIRD 13E 1 28946U 06007B 21065.56033146 .00000071 00000-0 00000-0 0 9992 2 28946 0.0392 204.2189 0001671 158.7605 16.2046 1.00272970 54969 ARIANE 5 DEB [SYLDA] 1 28947U 06007C 21065.03137982 .00001138 00000-0 68128-3 0 9991 2 28947 4.7701 328.0726 5749987 141.6363 278.1468 4.34592621179595 ARIANE 5 R/B 1 28948U 06007D 21065.19466687 .00002074 00000-0 62381-3 0 9991 2 28948 5.0425 43.4319 7082673 344.3836 1.7670 2.52825233132433